Wind_Speed
64 63 62 63 64 65 66 68 69 67 65 67 70 72 74 75 76 76 76 75 75 74 73 73 72 72 72 71 71 70 69 66 64 62 60 60 60 59
64 63 64 65 65 66 67 68 69 69 67 67 70 73 75 76 76 75 74 72 70 68 66 65 64 64 65 65 66 66 66 66 65 63 61 60 59 59
65 65 65 64 64 64 65 66 68 69 69 68 70 72 72 72 70 68 65 61 58 55 53 52 52 52 52 53 55 57 59 61 62 62 62 60 59 58
65 64 63 62 62 64 65 66 68 70 70 69 67 65 62 60 57 53 50 47 43 41 40 40 40 41 41 42 43 45 47 51 54 58 59 60 59 58
62 61 61 62 62 63 65 66 66 66 65 62 56 51 46 44 41 38 36 34 32 31 31 31 32 32 32 33 33 35 37 40 43 48 53 57 59 59
60 60 61 61 62 62 63 62 60 57 53 48 42 37 34 32 30 27 26 26 26 25 24 24 24 25 25 26 26 28 30 33 36 40 45 51 56 57
59 59 60 60 60 59 57 53 49 44 38 33 29 26 25 24 23 21 20 21 22 21 19 19 19 19 20 21 22 23 25 27 30 34 39 44 49 54
57 57 57 56 53 50 46 43 37 31 26 23 21 21 20 19 19 18 17 17 18 16 14 15 14 15 15 16 17 18 20 23 27 30 34 38 42 48
54 53 50 47 43 39 34 30 26 23 21 19 18 18 18 18 17 17 16 15 15 14 13 13 12 12 12 12 13 14 16 18 21 24 27 32 36 41
48 45 41 38 32 27 23 21 20 20 19 19 19 18 18 18 17 17 16 16 15 14 13 12 11 10 9 9 10 11 12 14 16 19 23 27 31 36
40 36 32 26 21 18 17 17 18 19 20 20 20 20 20 20 20 19 18 17 16 16 13 11 10 9 8 8 8 9 10 11 13 16 20 24 29 33
32 30 24 17 15 15 15 16 18 19 20 21 21 21 20 20 19 18 17 16 16 16 15 13 12 11 10 10 11 11 11 12 13 15 17 20 25 30
27 24 17 13 13 14 16 17 19 19 20 20 19 18 16 16 16 16 15 14 13 12 11 11 11 11 11 11 12 12 12 13 14 15 17 19 21 24
21 16 12 11 12 14 16 17 18 19 19 17 16 15 15 16 17 17 16 15 13 12 10 7 5 5 7 8 8 9 9 10 11 12 14 16 18 21
13 9 8 9 12 14 15 16 17 17 16 15 15 16 16 17 18 18 18 18 17 16 14 11 8 6 5 5 6 6 6 7 7 8 9 12 14 18
6 4 5 8 11 12 13 15 15 14 14 15 15 16 17 18 18 18 19 19 19 18 17 15 12 9 7 6 5 5 4 3 3 3 4 7 10 14
1 1 5 8 10 11 12 13 13 14 15 15 15 17 18 19 19 19 19 19 19 19 18 17 15 12 10 8 7 5 4 3 3 3 3 5 8 12
3 3 6 8 9 10 12 12 13 14 15 15 15 16 17 18 19 20 20 20 20 20 19 18 18 16 15 13 11 10 9 8 8 8 9 10 11 14
5 5 7 8 9 11 12 14 16 17 17 18 18 19 20 21 22 22 22 21 21 22 22 21 22 22 22 19 17 14 13 14 14 14 15 16 17 19
6 7 8 9 10 12 14 16 18 20 21 21 21 22 23 25 26 27 26 25 24 24 25 25 26 26 26 24 21 20 20 21 21 20 20 20 20 21
8 8 9 11 12 14 16 18 20 22 23 24 24 25 26 27 29 30 30 30 29 28 28 27 28 29 29 27 25 24 25 26 26 25 23 22 22 22
9 10 11 12 14 16 17 19 20 21 22 23 24 25 27 28 30 31 31 31 31 30 29 29 29 31 30 28 26 26 27 27 27 26 25 25 23 22
11 11 12 13 14 16 17 18 19 20 21 22 23 24 25 27 28 29 31 31 30 30 31 31 31 30 29 28 26 26 26 26 26 24 23 23 23 21
Wind_Direction
303 302 301 300 300 299 297 296 295 293 291 288 286 285 285 285 285 284 284 283 283 281 279 277 275 273 270 268 265 263 260 257 254 250 248 245 244 244
303 302 301 301 300 299 298 296 295 294 293 290 288 287 286 287 287 287 286 286 284 283 281 279 276 273 270 267 263 260 257 254 251 248 245 243 241 241
302 302 302 302 300 299 298 297 296 295 294 293 291 290 290 289 289 289 289 288 286 284 281 278 275 271 268 264 260 256 252 249 245 242 240 238 238 237
304 304 303 302 301 300 299 298 297 297 296 295 295 294 293 292 292 291 290 290 288 286 282 278 274 271 268 265 261 256 251 247 243 239 236 234 233 233
305 304 303 302 302 301 300 300 300 300 300 301 300 299 297 295 295 295 295 294 291 287 285 282 277 274 271 268 263 257 252 247 243 238 234 230 229 228
304 304 303 303 302 302 302 303 303 304 305 305 305 303 302 302 302 302 301 298 296 295 292 288 284 280 276 270 263 258 252 246 241 236 232 229 227 226
304 304 303 303 303 304 306 307 308 310 311 311 310 309 309 309 309 308 307 304 303 304 301 293 288 284 279 272 264 258 252 245 239 235 231 228 226 225
303 303 303 304 306 309 310 311 314 317 319 319 319 319 319 319 318 316 315 312 310 312 308 299 292 284 278 272 265 258 252 245 239 235 232 228 226 224
302 303 304 307 309 310 311 315 320 325 328 328 327 325 325 324 323 321 320 319 316 314 311 305 301 293 286 277 269 263 255 246 239 234 231 228 226 223
302 304 307 309 310 311 315 319 323 326 328 330 330 329 328 327 325 322 319 317 314 311 311 309 307 301 295 286 275 267 257 249 240 234 230 227 224 222
304 306 309 309 310 315 319 322 325 327 329 330 330 329 327 325 322 318 315 312 307 304 303 301 301 298 293 288 282 272 262 253 245 238 233 230 226 223
305 308 310 312 316 321 324 325 327 328 330 330 330 330 330 330 329 327 324 317 309 301 295 288 282 283 284 282 279 275 266 257 251 244 237 231 228 225
305 307 309 317 323 326 326 328 330 333 334 336 338 342 348 353 354 351 348 342 334 324 310 294 283 279 280 280 279 275 269 260 253 248 242 236 231 225
303 302 308 320 327 329 331 335 339 342 346 353 3 12 15 15 15 15 13 12 12 9 6 356 331 306 299 297 289 284 278 270 262 256 249 239 231 225
296 297 311 325 331 335 339 344 348 355 6 20 27 27 27 26 25 25 27 30 32 30 28 25 18 5 343 327 317 307 294 284 277 267 249 232 225 220
280 296 326 337 340 345 351 357 5 20 32 35 35 34 33 32 32 34 36 38 38 38 36 33 29 22 11 359 349 338 324 308 287 260 231 217 210 205
209 356 353 351 354 0 7 16 30 37 38 38 37 36 36 35 36 37 37 37 35 34 34 34 34 35 35 34 32 36 42 55 80 108 133 157 169 175
108 39 11 6 11 20 29 40 45 42 40 39 37 36 34 32 31 29 28 31 32 33 35 37 40 47 50 51 55 60 67 76 91 101 107 119 130 140
85 49 29 26 35 44 53 58 53 48 46 44 42 39 35 33 31 30 30 32 35 40 43 46 50 54 58 59 62 69 77 87 93 99 106 112 117 124
74 53 44 49 58 64 69 65 58 54 52 50 48 46 43 42 41 41 42 46 50 52 54 55 56 60 64 66 69 78 86 91 94 98 105 109 112 117
69 60 60 68 74 79 78 70 64 60 58 56 54 52 49 48 48 49 51 53 57 59 60 60 62 65 66 68 72 79 87 92 95 98 102 105 107 109
71 70 74 81 87 89 83 75 69 65 61 59 56 54 52 52 52 52 53 55 58 60 60 61 63 64 65 68 73 80 86 90 94 99 104 108 108 108
78 80 84 90 95 95 89 81 73 67 62 60 59 56 55 54 54 55 55 56 59 61 61 62 63 64 66 69 73 79 84 89 93 97 104 110 113 115
Height
5716 5709 5703 5696 5689 5682 5675 5669 5663 5661 5659 5650 5639 5629 5620 5615 5609 5603 5599 5595 5591 5588 5585 5583 5582 5582 5582 5583 5585 5588 5593 5598 5603 5609 5616 5622 5628 5634
5701 5695 5688 5681 5674 5666 5658 5650 5642 5637 5635 5630 5619 5610 5600 5593 5587 5581 5576 5572 5567 5563 5561 5558 5557 5556 5556 5557 5559 5563 5567 5573 5580 5588 5596 5603 5610 5617
5687 5680 5672 5665 5657 5649 5641 5632 5624 5616 5613 5609 5598 5589 5579 5571 5565 5559 5555 5551 5547 5543 5540 5537 5536 5534 5534 5535 5536 5539 5544 5550 5557 5566 5575 5584 5592 5601
5672 5665 5657 5650 5642 5633 5625 5616 5607 5598 5591 5586 5579 5569 5560 5552 5547 5542 5538 5534 5531 5527 5524 5522 5520 5519 5518 5518 5519 5522 5525 5530 5537 5546 5555 5566 5575 5584
5657 5650 5643 5635 5627 5619 5610 5600 5591 5581 5572 5565 5560 5552 5545 5538 5533 5530 5526 5522 5518 5515 5513 5510 5508 5507 5507 5507 5507 5509 5512 5517 5523 5529 5538 5547 5557 5567
5643 5636 5629 5621 5614 5605 5596 5585 5576 5567 5559 5551 5545 5539 5534 5529 5525 5521 5518 5514 5510 5507 5505 5502 5500 5499 5499 5498 5499 5500 5503 5506 5511 5517 5524 5532 5542 5553
5630 5622 5615 5607 5599 5591 5582 5573 5564 5556 5549 5542 5537 5532 5528 5523 5519 5516 5513 5509 5505 5502 5500 5497 5495 5494 5492 5492 5492 5494 5495 5498 5502 5507 5513 5521 5529 5539
5619 5611 5603 5595 5587 5579 5571 5563 5555 5549 5543 5538 5533 5528 5524 5520 5516 5512 5509 5506 5502 5499 5496 5493 5491 5489 5488 5488 5488 5488 5490 5492 5495 5500 5505 5512 5519 5528
5607 5600 5592 5585 5578 5571 5564 5557 5551 5545 5540 5535 5531 5526 5522 5518 5514 5510 5506 5503 5499 5496 5494 5491 5489 5487 5486 5485 5485 5485 5486 5488 5490 5494 5498 5504 5511 5519
5596 5590 5584 5577 5571 5565 5560 5554 5549 5544 5539 5534 5529 5524 5520 5515 5511 5507 5504 5500 5497 5494 5492 5490 5487 5486 5484 5483 5483 5483 5483 5485 5487 5489 5493 5498 5504 5511
5586 5581 5576 5571 5566 5561 5557 5552 5548 5543 5537 5532 5527 5522 5517 5513 5508 5505 5501 5498 5494 5492 5489 5488 5486 5484 5483 5482 5481 5481 5481 5482 5484 5486 5489 5493 5497 5503
5578 5574 5570 5566 5562 5558 5554 5550 5546 5541 5535 5530 5525 5520 5515 5510 5506 5502 5497 5494 5491 5488 5486 5485 5484 5483 5482 5481 5480 5479 5479 5480 5481 5483 5485 5488 5491 5497
5573 5569 5565 5562 5559 5556 5552 5548 5543 5538 5533 5528 5523 5518 5514 5509 5505 5500 5496 5491 5488 5485 5483 5481 5480 5480 5479 5478 5478 5477 5477 5477 5478 5479 5481 5483 5486 5491
5567 5565 5562 5560 5558 5555 5551 5546 5542 5536 5531 5526 5522 5518 5514 5510 5505 5501 5496 5491 5488 5484 5482 5480 5478 5478 5477 5476 5475 5475 5474 5474 5475 5475 5477 5479 5481 5485
5563 5562 5560 5559 5556 5553 5550 5545 5540 5536 5531 5527 5524 5520 5516 5512 5507 5503 5498 5494 5490 5486 5483 5481 5479 5478 5477 5475 5474 5473 5473 5473 5473 5473 5473 5475 5477 5480
5561 5560 5559 5558 5555 5552 5549 5545 5540 5536 5533 5529 5526 5522 5518 5514 5510 5506 5502 5498 5494 5490 5487 5483 5481 5478 5476 5475 5474 5473 5472 5472 5472 5472 5472 5473 5475 5477
5560 5560 5559 5557 5555 5552 5549 5545 5541 5538 5535 5532 5528 5525 5521 5517 5513 5509 5505 5501 5498 5494 5490 5487 5483 5480 5477 5475 5473 5473 5472 5472 5472 5473 5473 5474 5475 5477
5560 5560 5559 5557 5555 5552 5550 5547 5544 5541 5538 5535 5531 5528 5524 5520 5516 5513 5509 5505 5501 5497 5493 5490 5486 5483 5480 5477 5476 5475 5474 5474 5474 5475 5476 5477 5478 5480
5561 5560 5559 5557 5556 5554 5552 5549 5547 5544 5541 5538 5534 5531 5528 5524 5520 5516 5512 5508 5505 5501 5498 5495 5491 5487 5484 5482 5481 5479 5479 5478 5479 5480 5481 5483 5485 5487
5562 5561 5560 5559 5557 5556 5554 5553 5551 5548 5545 5542 5539 5536 5533 5529 5525 5521 5517 5513 5510 5507 5504 5501 5497 5493 5491 5489 5487 5486 5485 5485 5486 5487 5489 5491 5493 5496
5563 5562 5561 5560 5560 5559 5558 5557 5555 5553 5551 5548 5545 5542 5539 5535 5532 5528 5524 5520 5517 5514 5511 5508 5505 5502 5499 5498 5497 5495 5493 5493 5494 5496 5498 5501 5504 5507
5565 5564 5564 5563 5563 5563 5562 5561 5560 5558 5556 5554 5552 5549 5546 5543 5539 5536 5532 5528 5525 5522 5520 5517 5514 5511 5509 5508 5507 5505 5504 5503 5504 5505 5507 5510 5514 5517
5568 5567 5567 5567 5567 5567 5566 5566 5565 5564 5562 5560 5558 5555 5553 5550 5547 5544 5541 5537 5534 5532 5529 5526 5523 5520 5519 5518 5517 5515 5514 5514 5515 5517 5518 5519 5522 5525